CW3363 Weather Reports


Display with metric or nautical units.
time (UTC)temp
F
wind
direction
speed
MPH
gust
MPH
rain 1hr
in
rain 24hr
in
rain mn
in
humidity
%
barometer
mb
20260906095333 80 120 0.0 0.0 0.00 0.00 0.00 93 1012.5
20260906094826 80 120 0.0 0.0 0.00 0.00 0.00 93 1012.5
20260906094338 80 120 0.0 0.0 0.00 0.00 0.00 92 1012.4
20260906093852 80 120 0.0 0.0 0.00 0.00 0.00 92 1012.4
20260906093323 80 120 0.0 0.0 0.00 0.00 0.00 92 1012.4
20260906092903 80 120 0.0 0.0 0.00 0.00 0.00 92 1012.2
20260906092356 80 120 0.0 0.0 0.00 0.00 0.00 92 1012.2
20260906091831 81 120 0.0 0.0 0.00 0.00 0.00 91 1012.2
20260906091326 81 120 0.0 0.0 0.00 0.00 0.00 91 1012.2
20260906090839 81 120 0.0 0.0 0.00 0.00 0.00 91 1012.2
20260906090332 81 120 0.0 0.0 0.00 0.00 0.00 91 1012.2
20260906085823 81 120 0.0 0.0 0.00 0.00 0.00 91 1012.2
20260906085358 81 120 0.0 0.0 0.00 0.00 0.00 91 1012.2
20260906084850 81 120 0.0 0.0 0.00 0.00 0.00 91 1012.2
20260906084322 81 120 0.0 0.0 0.00 0.00 0.00 91 1012.2
20260906083835 81 120 0.0 0.0 0.00 0.00 0.00 90 1012.2
20260906083329 81 120 0.0 0.0 0.00 0.00 0.00 90 1012.2
20260906082826 81 120 0.0 0.0 0.00 0.00 0.00 90 1012.3
20260906082337 81 120 0.0 0.0 0.00 0.00 0.00 90 1012.3
20260906081828 81 120 0.0 0.0 0.00 0.00 0.00 90 1012.3
20260906081323 81 120 0.0 0.0 0.00 0.00 0.00 89 1012.2
20260906080902 81 120 0.0 0.0 0.00 0.00 0.00 89 1012.2
20260906080352 82 120 0.0 0.0 0.00 0.00 0.00 89 1012.2
20260906075824 82 120 0.0 0.0 0.00 0.00 0.00 89 1012.3
20260906075335 82 120 0.0 0.0 0.00 0.00 0.00 88 1012.3
20260906074848 82 120 0.0 0.0 0.00 0.00 0.00 88 1012.3
20260906074339 82 120 0.0 0.0 0.00 0.00 0.00 88 1012.6
20260906073856 82 120 0.0 0.0 0.00 0.00 0.00 88 1012.6
20260906073328 82 177 0.0 0.0 0.00 0.00 0.00 88 1012.6
20260906072840 82 177 0.0 0.0 0.00 0.00 0.00 88 1012.7
20260906072335 82 188 0.0 1.0 0.00 0.00 0.00 88 1012.7
20260906071829 82 188 0.0 3.0 0.00 0.00 0.00 88 1012.7
20260906071337 82 171 0.0 4.0 0.00 0.00 0.00 88 1012.7
20260906070832 82 208 1.0 4.0 0.00 0.00 0.00 88 1012.7
20260906070348 82 189 0.0 2.0 0.00 0.00 0.00 88 1012.7
20260906065907 82 187 0.0 3.0 0.00 0.00 0.00 87 1012.8
20260906065401 82 185 0.0 4.0 0.00 0.00 0.00 87 1012.8
20260906064833 82 187 2.0 5.0 0.00 0.00 0.00 87 1012.8
20260906064327 82 174 2.0 5.0 0.00 0.00 0.00 87 1012.8
20260906063840 82 183 0.0 3.0 0.00 0.00 0.00 87 1012.8
20260906063333 82 175 0.0 1.0 0.00 0.00 0.00 87 1012.8
20260906062827 82 175 0.0 1.0 0.00 0.00 0.00 87 1012.8
20260906062327 82 175 0.0 4.0 0.00 0.00 0.00 87 1012.8
20260906061822 82 175 0.0 4.0 0.00 0.00 0.00 86 1012.8
20260906061338 82 188 0.0 3.0 0.00 0.00 0.00 86 1012.8
20260906060831 82 182 2.0 4.0 0.00 0.00 0.00 86 1012.8
20260906060322 82 169 2.0 4.0 0.00 0.00 0.00 86 1012.8
20260906055855 82 172 0.0 4.0 0.00 0.00 0.00 86 1012.8
20260906055345 82 168 1.0 2.0 0.00 0.00 0.00 86 1012.8
20260906054853 82 177 1.0 4.0 0.00 0.00 0.00 86 1012.8
20260906054409 82 170 0.0 4.0 0.00 0.00 0.00 86 1012.8
20260906053859 82 209 2.0 5.0 0.00 0.00 0.00 87 1012.8
20260906053330 82 168 3.0 5.0 0.00 0.00 0.00 87 1012.8
20260906052823 82 191 1.0 5.0 0.00 0.00 0.00 87 1012.8
20260906052333 82 192 4.0 5.0 0.00 0.00 0.00 88 1012.8
20260906051845 82 174 1.0 4.0 0.00 0.00 0.00 89 1012.8
20260906051334 81 184 0.0 2.0 0.00 0.00 0.00 90 1012.8
20260906050848 81 182 0.0 2.0 0.00 0.00 0.00 90 1012.8
20260906050319 81 134 1.0 2.0 0.00 0.00 0.00 91 1012.8
20260906045828 81 134 0.0 0.0 0.00 0.00 0.00 90 1012.8
20260906045339 81 134 0.0 0.0 0.00 0.00 0.00 90 1012.8
20260906044832 81 134 0.0 0.0 0.00 0.00 0.00 90 1012.8
20260906044345 81 134 0.0 0.0 0.00 0.00 0.00 90 1012.8
20260906043842 81 134 0.0 0.0 0.00 0.00 0.00 90 1012.8
20260906043329 81 134 0.0 0.0 0.00 0.00 0.00 90 1012.8
20260906042841 81 134 0.0 0.0 0.00 0.00 0.00 90 1012.8
20260906042332 81 134 0.0 0.0 0.00 0.00 0.00 90 1012.8
20260906041844 81 134 0.0 0.0 0.00 0.00 0.00 90 1012.8
20260906041326 81 134 0.0 0.0 0.00 0.00 0.00 89 1012.9
20260906040838 81 134 0.0 0.0 0.00 0.00 0.00 89 1012.9
20260906040333 81 134 0.0 0.0 0.00 0.00 0.00 89 1012.9
20260906035844 81 134 0.0 1.0 0.00 0.00 0.00 89 1012.9
20260906035356 81 134 0.0 1.0 0.00 0.00 0.00 89 1012.9
20260906034827 81 134 0.0 2.0 0.00 0.00 0.00 89 1012.9
20260906034324 81 134 0.0 2.0 0.00 0.00 0.00 89 1013.1
20260906033837 81 134 0.0 0.0 0.00 0.00 0.00 89 1013.1
20260906033330 81 134 0.0 1.0 0.00 0.00 0.00 89 1013.1
20260906032825 81 134 0.0 4.0 0.00 0.00 0.00 89 1013.0
20260906032341 81 134 1.0 4.0 0.00 0.00 0.00 89 1013.0
20260906031855 81 134 0.0 3.0 0.00 0.00 0.00 89 1013.0
20260906031348 81 134 0.0 3.0 0.00 0.00 0.00 89 1012.8
20260906030839 81 128 0.0 2.0 0.00 0.00 0.00 89 1012.8
20260906030331 81 128 0.0 2.0 0.00 0.00 0.00 89 1012.8
20260906025841 81 128 0.0 4.0 0.00 0.00 0.00 89 1012.8
20260906025353 81 134 3.0 4.0 0.00 0.00 0.00 89 1012.8
20260906024825 81 62 0.0 1.0 0.00 0.00 0.00 89 1012.8
20260906024337 81 62 0.0 2.0 0.00 0.00 0.00 89 1012.5
20260906023828 81 62 1.0 2.0 0.00 0.00 0.00 89 1012.5
20260906023342 81 70 0.0 0.0 0.00 0.00 0.00 89 1012.5
20260906022832 81 331 0.0 2.0 0.00 0.00 0.00 89 1012.3
20260906022322 81 331 0.0 2.0 0.00 0.00 0.00 89 1012.3
20260906021838 81 87 0.0 2.0 0.00 0.00 0.00 89 1012.3
20260906021329 81 74 0.0 2.0 0.00 0.00 0.00 88 1012.2
20260906020824 81 126 0.0 3.0 0.00 0.00 0.00 88 1012.2
20260906020339 81 60 0.0 3.0 0.00 0.00 0.00 88 1012.2
20260906015828 81 54 1.0 3.0 0.00 0.00 0.00 88 1011.9
20260906015349 82 75 0.0 3.0 0.00 0.00 0.00 89 1011.9
20260906014900 82 62 1.0 4.0 0.00 0.00 0.00 89 1011.9
20260906014331 82 11 0.0 4.0 0.00 0.00 0.00 89 1011.7
20260906013843 81 88 1.0 4.0 0.00 0.00 0.00 89 1011.7
20260906013335 81 127 0.0 3.0 0.00 0.00 0.00 89 1011.7
20260906012845 81 63 0.0 0.0 0.00 0.00 0.00 89 1011.7
20260906012339 82 63 0.0 0.0 0.00 0.00 0.00 89 1011.7
20260906011831 82 63 0.0 0.0 0.00 0.00 0.00 88 1011.7
20260906011323 82 63 0.0 0.0 0.00 0.00 0.00 88 1011.7
20260906010834 82 63 0.0 0.0 0.00 0.00 0.00 88 1011.7
20260906010325 82 63 0.0 2.0 0.00 0.00 0.00 87 1011.7
20260906005840 82 69 0.0 2.0 0.00 0.00 0.00 87 1011.9
20260906005331 82 101 0.0 4.0 0.00 0.00 0.00 87 1011.9
20260906004846 82 101 0.0 4.0 0.00 0.00 0.00 86 1011.9
20260906004359 82 69 0.0 0.0 0.00 0.00 0.00 85 1012.2
20260906003831 83 69 0.0 0.0 0.00 0.00 0.00 85 1012.2
20260906003344 83 69 0.0 0.0 0.00 0.00 0.00 84 1012.2
20260906002837 83 70 0.0 0.0 0.00 0.00 0.00 83 1012.1
20260906002356 83 100 0.0 3.0 0.00 0.00 0.00 81 1012.1
20260906001826 84 68 0.0 3.0 0.00 0.00 0.00 80 1012.1
20260906001337 84 54 1.0 6.0 0.00 0.00 0.00 79 1012.2
20260906000831 84 55 2.0 6.0 0.00 0.00 0.00 78 1012.2
20260906000326 85 73 2.0 5.0 0.00 0.00 0.00 77 1012.2
20260905235854 85 50 0.0 5.0 0.00 0.00 0.00 76 1012.3
20260905235326 85 68 0.0 6.0 0.00 0.00 0.00 76 1012.3
20260905234839 85 75 3.0 6.0 0.00 0.00 0.00 75 1012.3
20260905234332 86 86 2.0 4.0 0.00 0.00 0.00 75 1012.5
20260905233827 86 87 0.0 0.0 0.00 0.00 0.00 75 1012.5
20260905233334 86 87 0.0 0.0 0.00 0.00 0.00 75 1012.5
20260905232830 86 87 0.0 0.0 0.00 0.00 0.00 74 1012.3
20260905232322 86 87 0.0 0.0 0.00 0.00 0.00 74 1012.3
20260905231839 86 87 0.0 0.0 0.00 0.00 0.00 74 1012.3
20260905231331 86 87 0.0 0.0 0.00 0.00 0.00 73 1012.3
20260905230845 86 87 0.0 0.0 0.00 0.00 0.00 74 1012.3
20260905230337 86 8 0.0 0.0 0.00 0.00 0.00 73 1012.3
20260905225848 87 44 0.0 1.0 0.00 0.00 0.00 74 1012.2
20260905225344 87 44 0.0 2.0 0.00 0.00 0.00 73 1012.2
20260905224840 87 80 0.0 2.0 0.00 0.00 0.00 74 1012.2
20260905224330 87 132 0.0 0.0 0.00 0.00 0.00 74 1012.2
20260905223845 87 132 0.0 3.0 0.00 0.00 0.00 74 1012.2
20260905223338 87 132 0.0 4.0 0.00 0.00 0.00 74 1012.2
20260905222832 87 132 1.0 5.0 0.00 0.00 0.00 74 1011.8
20260905222346 88 140 4.0 5.0 0.00 0.00 0.00 73 1011.8
20260905221839 88 124 4.0 7.0 0.00 0.00 0.00 73 1011.8
20260905221332 88 151 3.0 7.0 0.00 0.00 0.00 72 1012.0
20260905220828 88 165 4.0 8.0 0.00 0.00 0.00 71 1012.0
20260905220322 88 146 4.0 10.0 0.00 0.00 0.00 71 1012.0
20260905215852 89 137 5.0 10.0 0.00 0.00 0.00 70 1011.8
20260905215340 89 184 3.0 5.0 0.00 0.00 0.00 70 1011.8
20260905214857 89 208 1.0 7.0 0.00 0.00 0.00 70 1011.8
20260905214329 89 141 5.0 10.0 0.00 0.00 0.00 69 1011.8
20260905213843 89 142 5.0 10.0 0.00 0.00 0.00 68 1011.8
20260905213357 90 113 5.0 12.0 0.00 0.00 0.00 70 1011.8
20260905212833 90 210 5.0 12.0 0.00 0.00 0.00 68 1012.0
20260905212324 91 142 5.0 13.0 0.00 0.00 0.00 66 1012.0
20260905211819 90 109 4.0 11.0 0.00 0.00 0.00 66 1012.0
20260905211337 90 125 6.0 11.0 0.00 0.00 0.00 66 1012.2
20260905210826 90 142 5.0 11.0 0.00 0.00 0.00 66 1012.2
20260905210324 91 165 6.0 9.0 0.00 0.00 0.00 65 1012.2
20260905205835 91 167 6.0 10.0 0.00 0.00 0.00 66 1011.8
20260905205329 90 231 5.0 12.0 0.00 0.00 0.00 68 1011.8
20260905204840 91 131 8.0 12.0 0.00 0.00 0.00 67 1011.8
20260905204331 91 136 6.0 11.0 0.00 0.00 0.00 66 1012.0
20260905203843 91 160 3.0 11.0 0.00 0.00 0.00 66 1012.0
20260905203356 91 146 6.0 12.0 0.00 0.00 0.00 66 1012.0
20260905202825 92 143 10.0 12.0 0.00 0.00 0.00 65 1012.2
20260905202337 93 129 6.0 11.0 0.00 0.00 0.00 64 1012.2
20260905201831 93 130 5.0 9.0 0.00 0.00 0.00 62 1012.2
20260905201342 93 317 1.0 3.0 0.00 0.00 0.00 59 1012.3
20260905200836 94 309 1.0 3.0 0.00 0.00 0.00 59 1012.3
20260905200349 93 271 0.0 4.0 0.00 0.00 0.00 59 1012.3
20260905195832 93 321 1.0 4.0 0.00 0.00 0.00 59 1012.4
20260905195329 94 336 2.0 5.0 0.00 0.00 0.00 59 1012.4
20260905194822 94 327 3.0 5.0 0.00 0.00 0.00 59 1012.4
20260905194335 94 274 2.0 4.0 0.00 0.00 0.00 58 1012.7
20260905193830 95 248 2.0 5.0 0.00 0.00 0.00 58 1012.7
20260905193322 95 140 4.0 5.0 0.00 0.00 0.00 56 1012.7
20260905192835 95 120 0.0 1.0 0.00 0.00 0.00 59 1012.8
20260905192325 95 265 1.0 1.0 0.00 0.00 0.00 60 1012.8
20260905191821 95 312 0.0 3.0 0.00 0.00 0.00 59 1012.8
20260905191338 95 312 0.0 7.0 0.00 0.00 0.00 58 1013.1
20260905190828 96 137 4.0 7.0 0.00 0.00 0.00 57 1013.2
20260905190322 96 182 1.0 4.0 0.00 0.00 0.00 59 1013.2
20260905185831 95 177 2.0 3.0 0.00 0.00 0.00 59 1013.2
20260905185322 95 256 1.0 5.0 0.00 0.00 0.00 60 1013.2
20260905184900 94 268 1.0 7.0 0.00 0.00 0.00 62 1013.2
20260905184331 94 149 4.0 7.0 0.00 0.00 0.00 61 1013.3
20260905183823 93 201 2.0 10.0 0.00 0.01 0.00 63 1013.3
20260905183337 93 124 5.0 10.0 0.00 0.01 0.00 61 1013.3
20260905182830 94 80 3.0 8.0 0.00 0.01 0.00 62 1013.8
20260905182325 93 184 4.0 5.0 0.00 0.01 0.00 63 1013.8
20260905181837 92 40 1.0 4.0 0.00 0.01 0.00 63 1013.7
20260905181349 92 342 0.0 6.0 0.00 0.01 0.00 63 1014.0
20260905180838 92 92 1.0 6.0 0.00 0.01 0.00 64 1014.0
20260905180335 92 75 1.0 5.0 0.00 0.01 0.00 65 1014.0
20260905175825 92 343 4.0 5.0 0.00 0.01 0.00 63 1014.3
20260905175338 92 24 1.0 5.0 0.00 0.01 0.00 67 1014.3
20260905174830 92 70 1.0 3.0 0.00 0.01 0.00 63 1014.3
20260905174321 92 73 1.0 4.0 0.00 0.01 0.00 64 1014.6
20260905173855 91 54 0.0 5.0 0.00 0.05 0.00 65 1014.6
20260905173328 90 73 3.0 5.0 0.00 0.05 0.00 66 1014.6
20260905172841 89 89 2.0 4.0 0.00 0.05 0.00 67 1014.6
20260905172335 89 318 2.0 4.0 0.00 0.05 0.00 69 1014.6
20260905171825 88 269 1.0 3.0 0.00 0.05 0.00 69 1014.6
20260905171337 88 321 1.0 4.0 0.00 0.05 0.00 70 1014.8
20260905170831 89 351 1.0 4.0 0.00 0.05 0.00 71 1014.8
20260905170324 89 316 2.0 5.0 0.00 0.05 0.00 71 1014.8
20260905165856 89 360 2.0 6.0 0.00 0.05 0.00 71 1014.8
20260905165328 90 301 3.0 6.0 0.00 0.05 0.00 69 1014.8
20260905164822 91 292 1.0 3.0 0.00 0.05 0.00 68 1014.8
20260905164334 90 120 0.0 3.0 0.00 0.05 0.00 66 1014.9
20260905163836 90 89 0.0 3.0 0.00 0.05 0.00 67 1014.9
20260905163331 89 63 1.0 4.0 0.00 0.05 0.00 68 1014.9
20260905162823 88 80 0.0 4.0 0.00 0.05 0.00 69 1014.9
20260905162359 88 15 0.0 4.0 0.00 0.05 0.00 71 1014.9
20260905161830 87 67 0.0 0.0 0.00 0.05 0.00 71 1014.9
20260905161325 87 9 0.0 0.0 0.00 0.05 0.00 75 1014.9
20260905160840 87 9 0.0 2.0 0.00 0.05 0.00 75 1014.9
20260905160332 87 95 0.0 2.0 0.00 0.05 0.00 77 1014.9
20260905155823 87 305 1.0 2.0 0.00 0.05 0.00 76 1014.9
20260905155337 87 305 0.0 3.0 0.00 0.05 0.00 75 1014.9
20260905154831 87 305 1.0 4.0 0.00 0.05 0.00 75 1014.9
20260905154348 87 327 2.0 4.0 0.00 0.05 0.00 75 1014.9
20260905153838 87 223 1.0 4.0 0.00 0.05 0.00 78 1014.9
20260905153331 86 229 1.0 3.0 0.00 0.05 0.00 80 1014.9
20260905152823 86 236 1.0 3.0 0.00 0.05 0.00 81 1014.9
20260905152337 85 226 0.0 3.0 0.00 0.05 0.00 81 1014.9
20260905151829 85 317 1.0 3.0 0.00 0.05 0.00 82 1014.9
20260905151322 85 165 0.0 1.0 0.00 0.05 0.00 85 1014.9
20260905150835 85 165 0.0 3.0 0.00 0.05 0.00 85 1014.9
20260905150348 84 165 1.0 3.0 0.00 0.05 0.00 86 1014.8
20260905145838 84 182 1.0 2.0 0.00 0.05 0.00 86 1014.8
20260905145333 84 282 0.0 4.0 0.00 0.05 0.00 86 1014.8
20260905144827 84 315 1.0 4.0 0.00 0.05 0.00 88 1014.8
20260905144338 83 276 1.0 3.0 0.00 0.05 0.00 90 1014.8
20260905143833 83 217 1.0 3.0 0.00 0.05 0.00 90 1014.8
20260905143348 83 189 0.0 4.0 0.00 0.05 0.00 91 1014.8
20260905142837 82 175 0.0 5.0 0.00 0.05 0.00 92 1014.8
20260905142345 82 66 0.0 1.0 0.00 0.05 0.00 93 1014.8
20260905141837 82 66 0.0 2.0 0.00 0.05 0.00 93 1014.8
20260905141332 82 66 0.0 2.0 0.00 0.05 0.00 94 1014.8
20260905140825 81 66 0.0 2.0 0.00 0.05 0.00 95 1014.8
20260905140338 81 66 1.0 2.0 0.00 0.05 0.00 95 1014.8
20260905135828 81 66 0.0 0.0 0.00 0.05 0.00 95 1014.6
20260905135343 80 66 0.0 0.0 0.00 0.05 0.00 96 1014.6
20260905134834 80 147 0.0 1.0 0.00 0.05 0.00 96 1014.6
20260905134328 80 147 0.0 1.0 0.00 0.05 0.00 97 1014.4
20260905133841 79 147 0.0 1.0 0.00 0.05 0.00 97 1014.4
20260905133333 79 147 0.0 1.0 0.00 0.05 0.00 97 1014.4
20260905132846 79 147 0.0 1.0 0.00 0.05 0.00 97 1014.5
20260905132337 79 147 0.0 1.0 0.00 0.05 0.00 97 1014.5
20260905131831 79 147 0.0 1.0 0.00 0.05 0.00 97 1014.5
20260905131346 78 147 0.0 1.0 0.00 0.05 0.00 97 1014.4
20260905130837 78 148 0.0 1.0 0.00 0.05 0.00 97 1014.4
20260905130328 78 148 0.0 0.0 0.00 0.05 0.00 97 1014.4
20260905125839 78 148 0.0 0.0 0.00 0.05 0.00 97 1014.3
20260905125332 77 148 0.0 0.0 0.00 0.05 0.00 97 1014.3
20260905124850 77 148 0.0 0.0 0.00 0.05 0.00 97 1014.3
20260905124320 77 148 0.0 0.0 0.00 0.05 0.00 97 1014.1
20260905123858 77 148 0.0 0.0 0.00 0.05 0.00 97 1014.1
20260905123328 77 148 0.0 0.0 0.00 0.05 0.00 97 1014.1
20260905122840 77 148 0.0 0.0 0.00 0.05 0.00 97 1013.8
20260905122330 77 148 0.0 0.0 0.00 0.05 0.00 97 1013.8
20260905121842 77 147 0.0 0.0 0.00 0.05 0.00 97 1013.8
20260905121331 76 147 0.0 0.0 0.00 0.05 0.00 97 1013.7
20260905120844 77 147 0.0 0.0 0.00 0.05 0.00 97 1013.7
20260905120358 77 147 0.0 0.0 0.00 0.05 0.00 97 1013.7
20260905115858 77 147 0.0 0.0 0.00 0.05 0.00 97 1013.7
20260905115330 77 147 0.0 0.0 0.00 0.05 0.00 97 1013.7
20260905114846 77 147 0.0 0.0 0.00 0.05 0.00 97 1013.7
20260905114322 77 147 0.0 0.0 0.00 0.05 0.00 97 1013.4
20260905113834 77 147 0.0 0.0 0.00 0.05 0.00 97 1013.4
20260905113325 77 147 0.0 0.0 0.00 0.05 0.00 97 1013.4
20260905112843 77 147 0.0 0.0 0.00 0.05 0.00 97 1013.3
20260905112335 77 147 0.0 0.0 0.00 0.05 0.00 96 1013.3
20260905111847 77 147 0.0 0.0 0.00 0.05 0.00 96 1013.3
20260905111340 77 147 0.0 0.0 0.00 0.05 0.00 96 1013.1
20260905110832 77 147 0.0 0.0 0.00 0.05 0.00 96 1013.1
20260905110325 77 147 0.0 0.0 0.00 0.05 0.00 96 1013.1
20260905105836 77 147 0.0 0.0 0.00 0.05 0.00 96 1013.0
20260905105327 77 147 0.0 0.0 0.00 0.05 0.00 96 1013.0
20260905104839 77 147 0.0 0.0 0.00 0.05 0.00 96 1013.0
20260905104331 77 147 0.0 0.0 0.00 0.05 0.00 96 1013.0
20260905103823 77 147 0.0 0.0 0.00 0.05 0.00 96 1013.0
20260905103341 77 147 0.0 0.0 0.00 0.05 0.00 96 1013.0
20260905102835 77 147 0.0 0.0 0.00 0.05 0.00 96 1012.9
20260905102332 77 147 0.0 0.0 0.00 0.05 0.00 96 1012.9
20260905101826 77 147 0.0 0.0 0.00 0.05 0.00 96 1012.9
20260905101339 77 147 0.0 0.0 0.00 0.05 0.00 96 1012.8
20260905100834 77 147 0.0 0.0 0.00 0.05 0.00 96 1012.8
20260905100327 77 147 0.0 0.0 0.00 0.05 0.00 96 1012.8
20260905095837 77 147 0.0 0.0 0.00 0.05 0.00 96 1012.8